TONGUE Weather Reports


time (UTC)temp
F
wind
direction
speed
knots
gust
knots
rain 1hr
in
rain 24hr
in
rain mn
in
humidity
%
barometer
mb
20260505040003 55 252 0.9 5.2 0.00 0.00 0.00 95
20260505035002 55 179 0.9 5.2 0.00 0.00 0.00 94
20260505034003 55 297 0.9 4.3 0.00 0.00 0.00 94
20260505033003 54 217 0.0 6.1 0.00 0.00 0.00 94
20260505032003 55 205 1.7 8.7 0.00 0.00 0.00 92
20260505031003 55 192 1.7 7.8 0.00 0.00 0.00 92
20260505030003 55 226 0.0 5.2 0.00 0.00 0.00 92
20260505025003 55 239 1.7 7.0 0.00 0.00 0.00 92
20260505024003 55 194 0.9 8.7 0.00 0.00 0.00 91
20260505023004 55 158 0.9 7.0 0.00 0.00 0.00 90
20260505022003 56 144 0.0 7.0 0.00 0.00 0.00 90
20260505021003 56 195 1.7 6.1 0.00 0.00 0.00 90
20260505020002 56 210 1.7 9.6 0.00 0.00 0.00 89
20260505015002 56 210 1.7 8.7 0.00 0.00 0.00 89
20260505014002 58 233 0.0 5.2 0.00 0.00 0.00 84
20260505013003 57 213 0.9 7.0 0.00 0.00 0.00 87
20260505012003 56 243 3.5 10.4 0.00 0.00 0.00 87
20260505011003 57 225 3.5 12.2 0.00 0.00 0.00 85
20260505010004 58 238 3.5 9.6 0.00 0.00 0.00 83
20260505005002 58 233 2.6 11.3 0.00 0.00 0.00 84
20260505004003 59 245 1.7 11.3 0.00 0.00 0.00 81
20260505003003 60 219 1.7 7.0 0.00 0.00 0.00 81
20260505002003 59 214 1.7 12.2 0.00 0.00 0.00 83
20260505001003 60 275 1.7 9.6 0.00 0.00 0.00 81
20260505000004 59 265 3.5 9.6 0.00 0.00 0.00 81
20260504235002 60 236 1.7 10.4 0.00 0.00 0.00 80
20260504234003 61 177 1.7 9.6 0.00 0.00 0.00 79
20260504233003 61 229 1.7 11.3 0.00 0.00 0.00 77
20260504232003 61 212 1.7 11.3 0.00 0.00 0.00 78
20260504231003 61 237 2.6 10.4 0.00 0.00 0.00 75
20260504230003 62 152 0.9 7.0 0.00 0.00 0.00 76
20260504225003 61 210 1.7 12.2 0.00 0.00 0.00 81
20260504223002 61 175 3.5 13.0 0.00 0.00 0.00 79
20260504222003 61 182 0.9 10.4 0.00 0.00 0.00 75
20260504221003 62 251 2.6 7.0 0.00 0.00 0.00 75
20260504220003 62 186 0.9 9.6 0.00 0.00 0.00 73
20260504215003 63 239 2.6 9.6 0.00 0.00 0.00 72
20260504214003 61 276 3.5 11.3 0.00 0.00 0.00 75
20260504213004 61 233 4.3 11.3 0.00 0.00 0.00 76
20260504212003 62 264 3.5 11.3 0.00 0.00 0.00 75
20260504211002 62 229 0.9 8.7 0.00 0.00 0.00 76
20260504210004 63 206 1.7 7.0 0.00 0.00 0.00 72
20260504205003 63 270 3.5 11.3 0.00 0.00 0.00 73
20260504204003 62 255 3.5 10.4 0.00 0.00 0.00 72
20260504203003 63 210 1.7 9.6 0.00 0.00 0.00 73
20260504202002 63 290 4.3 11.3 0.00 0.00 0.00 72
20260504201003 63 240 0.9 8.7 0.00 0.00 0.00 71
20260504200003 63 212 1.7 8.7 0.00 0.00 0.00 71
20260504195003 63 272 3.5 9.6 0.00 0.00 0.00 72
20260504194003 65 217 1.7 5.2 0.00 0.00 0.00 70
20260504193003 65 237 0.9 7.0 0.00 0.00 0.00 73
20260504192003 63 236 0.9 6.1 0.00 0.00 0.00 73
20260504191003 63 120 0.9 4.3 0.00 0.00 0.00 74
20260504190003 62 81 0.9 6.1 0.00 0.00 0.00 79
20260504185002 63 116 0.0 3.5 0.00 0.00 0.00 79
20260504184003 61 253 2.6 6.1 0.00 0.00 0.00 79
20260504183003 61 207 0.9 4.3 0.00 0.00 0.00 81
20260504182003 61 75 0.9 4.3 0.00 0.00 0.00 81
20260504181003 61 221 1.7 4.3 0.00 0.00 0.00 81
20260504180003 60 63 0.9 3.5 0.00 0.00 0.00 80
20260504175003 60 103 1.7 4.3 0.00 0.00 0.00 80
20260504174002 61 152 0.0 6.1 0.00 0.00 0.00 80
20260504173003 59 108 2.6 6.1 0.00 0.00 0.00 86
20260504172003 60 160 0.9 3.5 0.00 0.00 0.00 78
20260504171003 60 159 0.0 4.3 0.00 0.00 0.00 80
20260504151003 56 199 0.0 6.1 0.00 0.00 0.00 92
20260504141008 53 189 0.0 0.9 0.00 0.00 0.00
20260504082008 54 303 0.9 4.3 0.00 0.00 0.00 96
20260504081002 54 264 0.9 3.5 0.00 0.00 0.00 95
20260504050004 60 176 2.6 3.5 0.00 0.00 0.00 83
20260504045003 62 183 1.7 2.6 0.00 0.00 0.00 83
20260504044003 62 178 1.7 3.5 0.00 0.00 0.00 83
20260504043004 62 173 0.0 1.7 0.00 0.00 0.00 82
20260504042002 63 193 0.9 1.7 0.00 0.00 0.00 79
20260504041002 63 135 0.9 2.6 0.00 0.00 0.00 79